Time,TemperatureF,DewpointF,PressureIn,WindDirection,WindDirectionDegrees,WindSpeedMPH,WindSpeedGustMPH,Humidity,HourlyPrecipIn,Conditions,Clouds,dailyrainin,SoftwareType,DateUTC
2014-01-17 00:00:00,56.1,2.2,30.50,SSE,167,6.0,6.0,11,0.00,,,0.00,Wunderground v.1.15,2014-01-17 08:00:00,
2014-01-17 00:10:00,56.3,2.4,30.50,SSE,160,8.0,8.0,11,0.00,,,0.00,Wunderground v.1.15,2014-01-17 08:10:00,
2014-01-17 00:15:00,56.3,2.4,30.50,SSE,165,5.0,13.0,11,0.00,,,0.00,Wunderground v.1.15,2014-01-17 08:15:00,
2014-01-17 00:20:00,56.4,2.4,30.51,SSE,163,3.0,3.0,11,0.00,,,0.00,Wunderground v.1.15,2014-01-17 08:20:00,
2014-01-17 00:30:00,55.2,1.5,30.51,SSE,163,1.0,1.0,11,0.00,,,0.00,Wunderground v.1.15,2014-01-17 08:30:00,
2014-01-17 00:35:00,54.4,2.7,30.51,SSE,163,1.0,15.0,12,0.00,,,0.00,Wunderground v.1.15,2014-01-17 08:35:00,
2014-01-17 00:45:00,54.5,2.8,30.51,SSE,163,1.0,15.0,12,0.00,,,0.00,Wunderground v.1.15,2014-01-17 08:45:00,
2014-01-17 00:50:00,55.1,1.4,30.51,SSE,163,2.0,15.0,11,0.00,,,0.00,Wunderground v.1.15,2014-01-17 08:50:00,
2014-01-17 00:55:00,55.1,1.4,30.51,SSE,163,2.0,15.0,11,0.00,,,0.00,Wunderground v.1.15,2014-01-17 08:55:00,
2014-01-17 01:00:00,54.6,1.0,30.51,SSE,163,2.0,2.0,11,0.00,,,0.00,Wunderground v.1.15,2014-01-17 09:00:00,
2014-01-17 01:05:00,54.5,2.8,30.51,SSE,163,1.0,5.0,12,0.00,,,0.00,Wunderground v.1.15,2014-01-17 09:05:00,
2014-01-17 01:15:00,54.5,2.8,30.51,SSW,194,2.0,5.0,12,0.00,,,0.00,Wunderground v.1.15,2014-01-17 09:15:00,
2014-01-17 01:20:00,53.9,2.4,30.51,SSW,196,3.0,3.0,12,0.00,,,0.00,Wunderground v.1.15,2014-01-17 09:20:00,
2014-01-17 01:30:00,53.2,1.8,30.51,South,187,2.0,5.0,12,0.00,,,0.00,Wunderground v.1.15,2014-01-17 09:30:00,
2014-01-17 01:35:00,53.4,2.0,30.51,South,187,2.0,6.0,12,0.00,,,0.00,Wunderground v.1.15,2014-01-17 09:35:00,
2014-01-17 01:45:00,53.4,2.0,30.51,South,188,2.0,6.0,12,0.00,,,0.00,Wunderground v.1.15,2014-01-17 09:45:00,
2014-01-17 01:50:00,53.0,1.6,30.51,South,189,3.0,3.0,12,0.00,,,0.00,Wunderground v.1.15,2014-01-17 09:50:00,
2014-01-17 01:55:00,53.0,1.6,30.51,SSW,192,3.0,6.0,12,0.00,,,0.00,Wunderground v.1.15,2014-01-17 09:55:00,
2014-01-17 02:05:00,51.5,2.2,30.51,SSW,196,3.0,6.0,13,0.00,,,0.00,Wunderground v.1.15,2014-01-17 10:05:00,
2014-01-17 02:10:00,50.9,3.3,30.51,SSW,196,2.0,6.0,14,0.00,,,0.00,Wunderground v.1.15,2014-01-17 10:10:00,
2014-01-17 02:15:00,50.6,3.1,30.51,SSW,196,2.0,6.0,14,0.00,,,0.00,Wunderground v.1.15,2014-01-17 10:15:00,
2014-01-17 02:20:00,50.5,3.0,30.51,SSW,196,2.0,2.0,14,0.00,,,0.00,Wunderground v.1.15,2014-01-17 10:20:00,
2014-01-17 02:30:00,49.6,3.8,30.51,SSW,196,1.0,1.0,15,0.00,,,0.00,Wunderground v.1.15,2014-01-17 10:30:00,
2014-01-17 02:35:00,49.0,3.3,30.51,SSW,196,1.0,2.0,15,0.00,,,0.00,Wunderground v.1.15,2014-01-17 10:35:00,
2014-01-17 02:45:00,50.3,2.8,30.51,SW,223,2.0,4.0,14,0.00,,,0.00,Wunderground v.1.15,2014-01-17 10:45:00,
2014-01-17 02:50:00,50.3,2.8,30.51,SW,223,2.0,4.0,14,0.00,,,0.00,Wunderground v.1.15,2014-01-17 10:50:00,
2014-01-17 03:00:00,50.2,2.7,30.51,SW,223,2.0,5.0,14,0.00,,,0.00,Wunderground v.1.15,2014-01-17 11:00:00,
2014-01-17 03:10:00,50.0,2.6,30.51,SW,223,3.0,5.0,14,0.00,,,0.00,Wunderground v.1.15,2014-01-17 11:10:00,
2014-01-17 03:20:00,50.0,2.6,30.51,WSW,241,3.0,3.0,14,0.00,,,0.00,Wunderground v.1.15,2014-01-17 11:20:00,
2014-01-17 03:30:00,49.4,3.6,30.51,WSW,241,2.0,5.0,15,0.00,,,0.00,Wunderground v.1.15,2014-01-17 11:30:00,
2014-01-17 03:35:00,49.3,3.5,30.51,WSW,241,3.0,5.0,15,0.00,,,0.00,Wunderground v.1.15,2014-01-17 11:35:00,
2014-01-17 03:40:00,48.7,3.0,30.51,WSW,241,3.0,5.0,15,0.00,,,0.00,Wunderground v.1.15,2014-01-17 11:40:00,
2014-01-17 03:45:00,48.2,4.0,30.51,WSW,253,4.0,5.0,16,0.00,,,0.00,Wunderground v.1.15,2014-01-17 11:45:00,
2014-01-17 03:55:00,47.4,3.4,30.51,WSW,254,2.0,5.0,16,0.00,,,0.00,Wunderground v.1.15,2014-01-17 11:55:00,
2014-01-17 04:00:00,47.8,3.7,30.51,WSW,254,2.0,6.0,16,0.00,,,0.00,Wunderground v.1.15,2014-01-17 12:00:00,
2014-01-17 04:05:00,48.3,4.1,30.51,WSW,254,3.0,6.0,16,0.00,,,0.00,Wunderground v.1.15,2014-01-17 12:05:00,
2014-01-17 04:15:00,48.5,4.3,30.51,WSW,258,3.0,6.0,16,0.00,,,0.00,Wunderground v.1.15,2014-01-17 12:15:00,
2014-01-17 04:20:00,48.8,4.5,30.51,WSW,257,4.0,6.0,16,0.00,,,0.00,Wunderground v.1.15,2014-01-17 12:20:00,
2014-01-17 04:30:00,48.3,4.1,30.51,WSW,258,3.0,6.0,16,0.00,,,0.00,Wunderground v.1.15,2014-01-17 12:30:00,
2014-01-17 04:35:00,48.1,3.9,30.51,WSW,258,3.0,6.0,16,0.00,,,0.00,Wunderground v.1.15,2014-01-17 12:35:00,
2014-01-17 04:40:00,48.1,3.9,30.51,WSW,258,3.0,5.0,16,0.00,,,0.00,Wunderground v.1.15,2014-01-17 12:40:00,
2014-01-17 04:45:00,48.1,3.9,30.51,WSW,258,3.0,5.0,16,0.00,,,0.00,Wunderground v.1.15,2014-01-17 12:45:00,
2014-01-17 04:50:00,48.0,3.9,30.51,WSW,258,2.0,5.0,16,0.00,,,0.00,Wunderground v.1.15,2014-01-17 12:50:00,
2014-01-17 05:00:00,48.0,3.9,30.51,WSW,258,3.0,4.0,16,0.00,,,0.00,Wunderground v.1.15,2014-01-17 13:00:00,
2014-01-17 05:05:00,47.7,4.9,30.51,WSW,258,3.0,4.0,17,0.00,,,0.00,Wunderground v.1.15,2014-01-17 13:05:00,
2014-01-17 05:15:00,47.2,4.5,30.52,WSW,258,1.0,3.0,17,0.00,,,0.00,Wunderground v.1.15,2014-01-17 13:15:00,
2014-01-17 05:20:00,47.7,4.9,30.52,WSW,258,2.0,2.0,17,0.00,,,0.00,Wunderground v.1.15,2014-01-17 13:20:00,
2014-01-17 05:30:00,47.4,4.7,30.52,WSW,258,1.0,4.0,17,0.00,,,0.00,Wunderground v.1.15,2014-01-17 13:30:00,
2014-01-17 05:35:00,47.7,4.9,30.52,WSW,258,2.0,5.0,17,0.00,,,0.00,Wunderground v.1.15,2014-01-17 13:35:00,
2014-01-17 05:40:00,47.7,4.9,30.52,WSW,258,3.0,3.0,17,0.00,,,0.00,Wunderground v.1.15,2014-01-17 13:40:00,
2014-01-17 05:50:00,47.3,4.6,30.52,WSW,258,1.0,5.0,17,0.00,,,0.00,Wunderground v.1.15,2014-01-17 13:50:00,
2014-01-17 06:00:00,47.3,4.6,30.53,WSW,258,2.0,2.0,17,0.00,,,0.00,Wunderground v.1.15,2014-01-17 14:00:00,
2014-01-17 06:05:00,48.2,5.3,30.52,WSW,258,2.0,5.0,17,0.00,,,0.00,Wunderground v.1.15,2014-01-17 14:05:00,
2014-01-17 06:15:00,48.9,4.6,30.53,WSW,258,3.0,5.0,16,0.00,,,0.00,Wunderground v.1.15,2014-01-17 14:15:00,
2014-01-17 06:20:00,49.0,4.7,30.53,WSW,258,3.0,3.0,16,0.00,,,0.00,Wunderground v.1.15,2014-01-17 14:20:00,
2014-01-17 06:30:00,48.7,4.4,30.53,WSW,258,2.0,5.0,16,0.00,,,0.00,Wunderground v.1.15,2014-01-17 14:30:00,
2014-01-17 06:35:00,48.8,4.5,30.53,WSW,258,2.0,5.0,16,0.00,,,0.00,Wunderground v.1.15,2014-01-17 14:35:00,
2014-01-17 06:40:00,48.9,4.6,30.53,WSW,258,2.0,4.0,16,0.00,,,0.00,Wunderground v.1.15,2014-01-17 14:40:00,
2014-01-17 06:50:00,49.2,4.8,30.53,WSW,258,2.0,4.0,16,0.00,,,0.00,Wunderground v.1.15,2014-01-17 14:50:00,
2014-01-17 06:55:00,49.4,5.0,30.53,WSW,258,2.0,4.0,16,0.00,,,0.00,Wunderground v.1.15,2014-01-17 14:55:00,
2014-01-17 07:00:00,49.6,5.2,30.53,WSW,258,2.0,4.0,16,0.00,,,0.00,Wunderground v.1.15,2014-01-17 15:00:00,
2014-01-17 07:05:00,49.7,5.2,30.54,WSW,258,2.0,4.0,16,0.00,,,0.00,Wunderground v.1.15,2014-01-17 15:05:00,
2014-01-17 07:15:00,49.3,4.9,30.54,WSW,258,3.0,4.0,16,0.00,,,0.00,Wunderground v.1.15,2014-01-17 15:15:00,
2014-01-17 07:20:00,49.3,4.9,30.54,WSW,258,3.0,4.0,16,0.00,,,0.00,Wunderground v.1.15,2014-01-17 15:20:00,
2014-01-17 07:30:00,50.1,5.6,30.54,WSW,258,3.0,4.0,16,0.00,,,0.00,Wunderground v.1.15,2014-01-17 15:30:00,
2014-01-17 07:35:00,50.6,4.6,30.54,WSW,258,3.0,4.0,15,0.00,,,0.00,Wunderground v.1.15,2014-01-17 15:35:00,
2014-01-17 07:40:00,50.8,4.7,30.54,WSW,258,3.0,4.0,15,0.00,,,0.00,Wunderground v.1.15,2014-01-17 15:40:00,
2014-01-17 07:50:00,51.3,5.1,30.55,WSW,258,3.0,4.0,15,0.00,,,0.00,Wunderground v.1.15,2014-01-17 15:50:00,
2014-01-17 07:55:00,51.9,5.6,30.55,WSW,258,3.0,4.0,15,0.00,,,0.00,Wunderground v.1.15,2014-01-17 15:55:00,
2014-01-17 08:00:00,52.7,6.3,30.55,WSW,258,2.0,2.0,15,0.00,,,0.00,Wunderground v.1.15,2014-01-17 16:00:00,
2014-01-17 08:05:00,53.4,5.3,30.55,WSW,258,2.0,5.0,14,0.00,,,0.00,Wunderground v.1.15,2014-01-17 16:05:00,
2014-01-17 08:15:00,54.4,6.1,30.55,WSW,258,2.0,5.0,14,0.00,,,0.00,Wunderground v.1.15,2014-01-17 16:15:00,
2014-01-17 08:20:00,55.2,6.7,30.55,WSW,258,1.0,5.0,14,0.00,,,0.00,Wunderground v.1.15,2014-01-17 16:20:00,
2014-01-17 08:30:00,56.4,6.1,30.56,WSW,258,1.0,1.0,13,0.00,,,0.00,Wunderground v.1.15,2014-01-17 16:30:00,
2014-01-17 08:35:00,57.1,6.6,30.56,WSW,258,0.0,4.0,13,0.00,,,0.00,Wunderground v.1.15,2014-01-17 16:35:00,
2014-01-17 08:45:00,57.9,5.5,30.56,WSW,258,0.0,4.0,12,0.00,,,0.00,Wunderground v.1.15,2014-01-17 16:45:00,
2014-01-17 08:50:00,58.2,3.8,30.56,WSW,258,0.0,4.0,11,0.00,,,0.00,Wunderground v.1.15,2014-01-17 16:50:00,
2014-01-17 08:55:00,58.5,4.1,30.56,WSW,258,0.0,4.0,11,0.00,,,0.00,Wunderground v.1.15,2014-01-17 16:55:00,
2014-01-17 09:00:00,58.9,4.4,30.56,WSW,258,1.0,3.0,11,0.00,,,0.00,Wunderground v.1.15,2014-01-17 17:00:00,
2014-01-17 09:05:00,59.2,4.6,30.56,WSW,258,1.0,3.0,11,0.00,,,0.00,Wunderground v.1.15,2014-01-17 17:05:00,
2014-01-17 09:15:00,59.5,4.8,30.56,WSW,258,0.0,3.0,11,0.00,,,0.00,Wunderground v.1.15,2014-01-17 17:15:00,
2014-01-17 09:20:00,59.4,4.8,30.56,WSW,258,0.0,3.0,11,0.00,,,0.00,Wunderground v.1.15,2014-01-17 17:20:00,
2014-01-17 09:30:00,59.8,5.1,30.56,WSW,258,1.0,1.0,11,0.00,,,0.00,Wunderground v.1.15,2014-01-17 17:30:00,
2014-01-17 09:35:00,60.0,5.2,30.56,WSW,256,1.0,3.0,11,0.00,,,0.00,Wunderground v.1.15,2014-01-17 17:35:00,
2014-01-17 09:40:00,60.2,5.4,30.56,WSW,256,1.0,1.0,11,0.00,,,0.00,Wunderground v.1.15,2014-01-17 17:40:00,
2014-01-17 09:50:00,60.0,3.2,30.56,WSW,244,1.0,3.0,10,0.00,,,0.00,Wunderground v.1.15,2014-01-17 17:50:00,
2014-01-17 09:55:00,59.8,5.1,30.56,SW,236,1.0,3.0,11,0.00,,,0.00,Wunderground v.1.15,2014-01-17 17:55:00,
2014-01-17 10:00:00,59.7,5.0,30.56,SW,219,1.0,4.0,11,0.00,,,0.00,Wunderground v.1.15,2014-01-17 18:00:00,
2014-01-17 10:05:00,59.5,4.8,30.56,SSW,193,2.0,4.0,11,0.00,,,0.00,Wunderground v.1.15,2014-01-17 18:05:00,
2014-01-17 10:15:00,60.0,5.2,30.56,SSW,193,2.0,4.0,11,0.00,,,0.00,Wunderground v.1.15,2014-01-17 18:15:00,
2014-01-17 10:20:00,60.0,5.2,30.56,SSW,193,2.0,2.0,11,0.00,,,0.00,Wunderground v.1.15,2014-01-17 18:20:00,
2014-01-17 10:25:00,60.0,5.2,30.56,SSW,193,2.0,4.0,11,0.00,,,0.00,Wunderground v.1.15,2014-01-17 18:25:00,
2014-01-17 10:35:00,60.4,5.6,30.55,South,187,1.0,2.0,11,0.00,,,0.00,Wunderground v.1.15,2014-01-17 18:35:00,
2014-01-17 10:45:00,60.9,3.9,30.55,South,187,2.0,5.0,10,0.00,,,0.00,Wunderground v.1.15,2014-01-17 18:45:00,
2014-01-17 10:50:00,60.7,3.7,30.54,South,182,2.0,2.0,10,0.00,,,0.00,Wunderground v.1.15,2014-01-17 18:50:00,
2014-01-17 11:00:00,61.0,3.9,30.54,South,182,1.0,6.0,10,0.00,,,0.00,Wunderground v.1.15,2014-01-17 19:00:00,
2014-01-17 11:05:00,61.0,3.9,30.54,South,181,1.0,6.0,10,0.00,,,0.00,Wunderground v.1.15,2014-01-17 19:05:00,
2014-01-17 11:15:00,61.6,4.4,30.53,South,181,2.0,3.0,10,0.00,,,0.00,Wunderground v.1.15,2014-01-17 19:15:00,
2014-01-17 11:20:00,61.9,2.3,30.53,SSE,160,3.0,6.0,9,0.00,,,0.00,Wunderground v.1.15,2014-01-17 19:20:00,
2014-01-17 11:30:00,61.9,2.3,30.52,SSE,158,4.0,4.0,9,0.00,,,0.00,Wunderground v.1.15,2014-01-17 19:30:00,
2014-01-17 11:35:00,61.9,2.3,30.52,SSE,158,4.0,8.0,9,0.00,,,0.00,Wunderground v.1.15,2014-01-17 19:35:00,
2014-01-17 11:45:00,62.7,2.9,30.51,SSE,159,2.0,8.0,9,0.00,,,0.00,Wunderground v.1.15,2014-01-17 19:45:00,
2014-01-17 11:50:00,62.8,3.0,30.51,SSE,155,3.0,3.0,9,0.00,,,0.00,Wunderground v.1.15,2014-01-17 19:50:00,
2014-01-17 12:00:00,62.5,2.8,30.50,SSE,154,4.0,4.0,9,0.00,,,0.00,Wunderground v.1.15,2014-01-17 20:00:00,
2014-01-17 12:10:00,63.0,3.2,30.50,SSE,165,3.0,9.0,9,0.00,,,0.00,Wunderground v.1.15,2014-01-17 20:10:00,
2014-01-17 12:15:00,63.2,3.3,30.50,SSE,148,3.0,9.0,9,0.00,,,0.00,Wunderground v.1.15,2014-01-17 20:15:00,
2014-01-17 12:20:00,63.0,3.2,30.50,SSE,148,3.0,3.0,9,0.00,,,0.00,Wunderground v.1.15,2014-01-17 20:20:00,
2014-01-17 12:25:00,63.2,3.3,30.49,SSE,153,4.0,4.0,9,0.00,,,0.00,Wunderground v.1.15,2014-01-17 20:25:00,
2014-01-17 12:35:00,63.5,3.6,30.49,SSW,193,3.0,9.0,9,0.00,,,0.00,Wunderground v.1.15,2014-01-17 20:35:00,
2014-01-17 12:45:00,63.2,0.8,30.48,SSE,148,5.0,9.0,8,0.00,,,0.00,Wunderground v.1.15,2014-01-17 20:45:00,
2014-01-17 12:50:00,63.4,0.9,30.48,SSE,152,5.0,5.0,8,0.00,,,0.00,Wunderground v.1.15,2014-01-17 20:50:00,
2014-01-17 13:00:00,63.3,0.9,30.47,SSE,156,6.0,6.0,8,0.00,,,0.00,Wunderground v.1.15,2014-01-17 21:00:00,
2014-01-17 13:05:00,63.6,1.1,30.47,SE,138,5.0,11.0,8,0.00,,,0.00,Wunderground v.1.15,2014-01-17 21:05:00,
2014-01-17 13:15:00,63.6,1.1,30.47,SSE,161,5.0,5.0,8,0.00,,,0.00,Wunderground v.1.15,2014-01-17 21:15:00,
2014-01-17 13:20:00,63.8,1.2,30.47,SE,137,4.0,11.0,8,0.00,,,0.00,Wunderground v.1.15,2014-01-17 21:20:00,
2014-01-17 13:25:00,63.9,1.3,30.47,SSE,151,5.0,11.0,8,0.00,,,0.00,Wunderground v.1.15,2014-01-17 21:25:00,
2014-01-17 13:35:00,64.0,1.4,30.46,SSE,163,3.0,7.0,8,0.00,,,0.00,Wunderground v.1.15,2014-01-17 21:35:00,
2014-01-17 13:40:00,63.9,1.3,30.47,SSE,165,3.0,11.0,8,0.00,,,0.00,Wunderground v.1.15,2014-01-17 21:40:00,
2014-01-17 13:50:00,64.2,1.5,30.47,SSE,163,3.0,3.0,8,0.00,,,0.00,Wunderground v.1.15,2014-01-17 21:50:00,
2014-01-17 14:00:00,64.3,1.6,30.46,South,171,3.0,8.0,8,0.00,,,0.00,Wunderground v.1.15,2014-01-17 22:00:00,
2014-01-17 14:05:00,64.3,1.6,30.46,South,180,4.0,8.0,8,0.00,,,0.00,Wunderground v.1.15,2014-01-17 22:05:00,
2014-01-17 14:15:00,64.7,1.9,30.46,South,179,3.0,6.0,8,0.00,,,0.00,Wunderground v.1.15,2014-01-17 22:15:00,
2014-01-17 14:20:00,64.8,2.0,30.46,South,179,3.0,3.0,8,0.00,,,0.00,Wunderground v.1.15,2014-01-17 22:20:00,
2014-01-17 14:30:00,64.7,1.9,30.46,SSE,156,4.0,4.0,8,0.00,,,0.00,Wunderground v.1.15,2014-01-17 22:30:00,
2014-01-17 14:35:00,64.6,1.8,30.46,SSE,156,3.0,8.0,8,0.00,,,0.00,Wunderground v.1.15,2014-01-17 22:35:00,
2014-01-17 14:45:00,64.6,1.8,30.46,SSE,152,4.0,8.0,8,0.00,,,0.00,Wunderground v.1.15,2014-01-17 22:45:00,
2014-01-17 14:50:00,64.6,1.8,30.45,SSE,152,3.0,8.0,8,0.00,,,0.00,Wunderground v.1.15,2014-01-17 22:50:00,
2014-01-17 15:00:00,64.8,2.0,30.45,SSE,161,4.0,9.0,8,0.00,,,0.00,Wunderground v.1.15,2014-01-17 23:00:00,
2014-01-17 15:05:00,64.7,1.9,30.45,SSE,163,4.0,9.0,8,0.00,,,0.00,Wunderground v.1.15,2014-01-17 23:05:00,
2014-01-17 15:10:00,64.6,1.8,30.45,SSE,158,4.0,9.0,8,0.00,,,0.00,Wunderground v.1.15,2014-01-17 23:10:00,
2014-01-17 15:20:00,64.6,1.8,30.45,SSE,158,3.0,3.0,8,0.00,,,0.00,Wunderground v.1.15,2014-01-17 23:20:00,
2014-01-17 15:25:00,64.6,1.8,30.45,SSE,158,3.0,9.0,8,0.00,,,0.00,Wunderground v.1.15,2014-01-17 23:25:00,
2014-01-17 15:30:00,64.5,1.8,30.45,SSE,158,3.0,3.0,8,0.00,,,0.00,Wunderground v.1.15,2014-01-17 23:30:00,
2014-01-17 15:35:00,64.6,1.8,30.45,SSE,158,2.0,8.0,8,0.00,,,0.00,Wunderground v.1.15,2014-01-17 23:35:00,
2014-01-17 15:45:00,64.6,1.8,30.45,SSE,158,3.0,4.0,8,0.00,,,0.00,Wunderground v.1.15,2014-01-17 23:45:00,
2014-01-17 15:50:00,64.5,1.8,30.45,SSE,160,3.0,8.0,8,0.00,,,0.00,Wunderground v.1.15,2014-01-17 23:50:00,
2014-01-17 16:00:00,64.2,1.5,30.44,SSE,158,4.0,4.0,8,0.00,,,0.00,Wunderground v.1.15,2014-01-18 00:00:00,
2014-01-17 16:05:00,64.0,1.4,30.44,SSE,158,4.0,8.0,8,0.00,,,0.00,Wunderground v.1.15,2014-01-18 00:05:00,
2014-01-17 16:15:00,63.8,1.2,30.44,SSE,158,3.0,8.0,8,0.00,,,0.00,Wunderground v.1.15,2014-01-18 00:15:00,
2014-01-17 16:20:00,63.6,1.1,30.44,SSE,158,3.0,3.0,8,0.00,,,0.00,Wunderground v.1.15,2014-01-18 00:20:00,
2014-01-17 16:25:00,63.4,3.5,30.44,SSE,158,2.0,8.0,9,0.00,,,0.00,Wunderground v.1.15,2014-01-18 00:25:00,
2014-01-17 16:30:00,63.3,3.4,30.44,SSE,158,2.0,2.0,9,0.00,,,0.00,Wunderground v.1.15,2014-01-18 00:30:00,
2014-01-17 16:35:00,62.9,3.1,30.44,SSE,158,1.0,7.0,9,0.00,,,0.00,Wunderground v.1.15,2014-01-18 00:35:00,
2014-01-17 16:45:00,62.2,2.6,30.44,SSE,158,2.0,7.0,9,0.00,,,0.00,Wunderground v.1.15,2014-01-18 00:45:00,
2014-01-17 16:50:00,61.9,2.3,30.44,SSE,158,1.0,1.0,9,0.00,,,0.00,Wunderground v.1.15,2014-01-18 00:50:00,
2014-01-17 17:00:00,61.0,1.7,30.45,SSE,158,0.0,4.0,9,0.00,,,0.00,Wunderground v.1.15,2014-01-18 01:00:00,
2014-01-17 17:05:00,60.3,1.1,30.45,SSE,158,0.0,4.0,9,0.00,,,0.00,Wunderground v.1.15,2014-01-18 01:05:00,
2014-01-17 17:15:00,59.2,2.5,30.45,SSE,158,0.0,4.0,10,0.00,,,0.00,Wunderground v.1.15,2014-01-18 01:15:00,
2014-01-17 17:20:00,57.5,1.2,30.45,SSE,163,0.0,4.0,10,0.00,,,0.00,Wunderground v.1.15,2014-01-18 01:20:00,
2014-01-17 17:30:00,55.3,1.6,30.45,SW,227,3.0,4.0,11,0.00,,,0.00,Wunderground v.1.15,2014-01-18 01:30:00,
2014-01-17 17:35:00,55.0,1.3,30.46,WSW,242,3.0,6.0,11,0.00,,,0.00,Wunderground v.1.15,2014-01-18 01:35:00,
2014-01-17 17:45:00,54.1,2.5,30.46,WSW,242,1.0,6.0,12,0.00,,,0.00,Wunderground v.1.15,2014-01-18 01:45:00,
2014-01-17 17:50:00,53.7,2.2,30.46,WSW,242,1.0,6.0,12,0.00,,,0.00,Wunderground v.1.15,2014-01-18 01:50:00,
2014-01-17 18:00:00,53.5,2.0,30.46,WSW,242,2.0,6.0,12,0.00,,,0.00,Wunderground v.1.15,2014-01-18 02:00:00,
2014-01-17 18:05:00,52.8,1.5,30.46,WSW,242,3.0,6.0,12,0.00,,,0.00,Wunderground v.1.15,2014-01-18 02:05:00,
2014-01-17 18:10:00,52.3,1.1,30.46,WSW,246,3.0,6.0,12,0.00,,,0.00,Wunderground v.1.15,2014-01-18 02:10:00,
2014-01-17 18:15:00,52.5,1.2,30.46,WSW,246,3.0,6.0,12,0.00,,,0.00,Wunderground v.1.15,2014-01-18 02:15:00,
2014-01-17 18:20:00,53.3,1.9,30.46,WSW,248,3.0,6.0,12,0.00,,,0.00,Wunderground v.1.15,2014-01-18 02:20:00,
2014-01-17 18:30:00,53.2,1.8,30.46,WSW,248,3.0,6.0,12,0.00,,,0.00,Wunderground v.1.15,2014-01-18 02:30:00,
2014-01-17 18:35:00,53.0,1.6,30.46,WSW,248,3.0,6.0,12,0.00,,,0.00,Wunderground v.1.15,2014-01-18 02:35:00,
2014-01-17 18:45:00,52.0,0.9,30.46,WSW,250,3.0,6.0,12,0.00,,,0.00,Wunderground v.1.15,2014-01-18 02:45:00,
2014-01-17 18:55:00,51.5,0.5,30.46,WSW,252,3.0,6.0,12,0.00,,,0.00,Wunderground v.1.15,2014-01-18 02:55:00,
2014-01-17 19:00:00,51.4,0.4,30.46,WSW,252,3.0,3.0,12,0.00,,,0.00,Wunderground v.1.15,2014-01-18 03:00:00,
2014-01-17 19:10:00,51.5,0.5,30.47,WSW,252,2.0,5.0,12,0.00,,,0.00,Wunderground v.1.15,2014-01-18 03:10:00,
2014-01-17 19:15:00,50.8,1.6,30.47,WSW,252,3.0,5.0,13,0.00,,,0.00,Wunderground v.1.15,2014-01-18 03:15:00,
2014-01-17 19:20:00,50.6,1.5,30.47,WSW,252,3.0,5.0,13,0.00,,,0.00,Wunderground v.1.15,2014-01-18 03:20:00,
2014-01-17 19:30:00,50.1,1.1,30.47,WSW,252,1.0,1.0,13,0.00,,,0.00,Wunderground v.1.15,2014-01-18 03:30:00,
2014-01-17 19:35:00,49.5,0.6,30.47,WSW,252,0.0,5.0,13,0.00,,,0.00,Wunderground v.1.15,2014-01-18 03:35:00,
2014-01-17 19:40:00,48.6,1.5,30.47,WSW,252,1.0,5.0,14,0.00,,,0.00,Wunderground v.1.15,2014-01-18 03:40:00,
2014-01-17 19:45:00,47.7,2.2,30.47,WSW,252,1.0,5.0,15,0.00,,,0.00,Wunderground v.1.15,2014-01-18 03:45:00,
2014-01-17 19:50:00,47.2,1.8,30.47,WSW,252,1.0,5.0,15,0.00,,,0.00,Wunderground v.1.15,2014-01-18 03:50:00,
2014-01-17 20:00:00,47.6,0.7,30.47,WSW,252,2.0,2.0,14,0.00,,,0.00,Wunderground v.1.15,2014-01-18 04:00:00,
2014-01-17 20:05:00,48.3,1.2,30.47,WSW,252,2.0,4.0,14,0.00,,,0.00,Wunderground v.1.15,2014-01-18 04:05:00,
2014-01-17 20:15:00,50.6,-0.3,30.47,West,263,3.0,5.0,12,0.00,,,0.00,Wunderground v.1.15,2014-01-18 04:15:00,
2014-01-17 20:20:00,51.5,0.5,30.47,West,264,4.0,4.0,12,0.00,,,0.00,Wunderground v.1.15,2014-01-18 04:20:00,
2014-01-17 20:25:00,52.1,0.9,30.47,West,264,4.0,5.0,12,0.00,,,0.00,Wunderground v.1.15,2014-01-18 04:25:00,
2014-01-17 20:35:00,51.9,0.8,30.47,West,264,3.0,5.0,12,0.00,,,0.00,Wunderground v.1.15,2014-01-18 04:35:00,
2014-01-17 20:40:00,51.6,0.5,30.47,West,264,3.0,6.0,12,0.00,,,0.00,Wunderground v.1.15,2014-01-18 04:40:00,
2014-01-17 20:45:00,51.3,0.3,30.47,West,264,3.0,6.0,12,0.00,,,0.00,Wunderground v.1.15,2014-01-18 04:45:00,
2014-01-17 20:50:00,51.1,0.1,30.47,West,264,3.0,6.0,12,0.00,,,0.00,Wunderground v.1.15,2014-01-18 04:50:00,
2014-01-17 21:00:00,51.3,0.3,30.47,West,264,3.0,5.0,12,0.00,,,0.00,Wunderground v.1.15,2014-01-18 05:00:00,
2014-01-17 21:05:00,51.9,0.8,30.47,West,264,3.0,5.0,12,0.00,,,0.00,Wunderground v.1.15,2014-01-18 05:05:00,
2014-01-17 21:15:00,52.6,1.3,30.47,West,264,3.0,5.0,12,0.00,,,0.00,Wunderground v.1.15,2014-01-18 05:15:00,
2014-01-17 21:20:00,52.5,1.2,30.48,West,264,3.0,5.0,12,0.00,,,0.00,Wunderground v.1.15,2014-01-18 05:20:00,
2014-01-17 21:25:00,52.4,1.2,30.48,West,264,3.0,5.0,12,0.00,,,0.00,Wunderground v.1.15,2014-01-18 05:25:00,
2014-01-17 21:30:00,52.5,1.2,30.48,West,264,4.0,4.0,12,0.00,,,0.00,Wunderground v.1.15,2014-01-18 05:30:00,
2014-01-17 21:35:00,52.4,1.2,30.48,West,264,3.0,5.0,12,0.00,,,0.00,Wunderground v.1.15,2014-01-18 05:35:00,
2014-01-17 21:40:00,52.4,2.9,30.48,West,264,3.0,5.0,13,0.00,,,0.00,Wunderground v.1.15,2014-01-18 05:40:00,
2014-01-17 21:50:00,52.5,1.2,30.48,West,264,4.0,5.0,12,0.00,,,0.00,Wunderground v.1.15,2014-01-18 05:50:00,
2014-01-17 21:55:00,52.3,1.1,30.48,West,263,4.0,5.0,12,0.00,,,0.00,Wunderground v.1.15,2014-01-18 05:55:00,
2014-01-17 22:00:00,51.8,2.4,30.48,West,262,4.0,7.0,13,0.00,,,0.00,Wunderground v.1.15,2014-01-18 06:00:00,
2014-01-17 22:05:00,51.6,2.3,30.48,West,261,4.0,7.0,13,0.00,,,0.00,Wunderground v.1.15,2014-01-18 06:05:00,
2014-01-17 22:10:00,51.4,2.1,30.48,West,260,4.0,7.0,13,0.00,,,0.00,Wunderground v.1.15,2014-01-18 06:10:00,
2014-01-17 22:15:00,51.3,2.0,30.48,West,261,4.0,7.0,13,0.00,,,0.00,Wunderground v.1.15,2014-01-18 06:15:00,
2014-01-17 22:20:00,51.3,2.0,30.48,West,260,4.0,4.0,13,0.00,,,0.00,Wunderground v.1.15,2014-01-18 06:20:00,
2014-01-17 22:30:00,51.7,2.3,30.48,West,262,4.0,7.0,13,0.00,,,0.00,Wunderground v.1.15,2014-01-18 06:30:00,
2014-01-17 22:35:00,51.9,2.5,30.47,West,261,4.0,7.0,13,0.00,,,0.00,Wunderground v.1.15,2014-01-18 06:35:00,
2014-01-17 22:45:00,52.0,0.9,30.47,West,260,4.0,6.0,12,0.00,,,0.00,Wunderground v.1.15,2014-01-18 06:45:00,
2014-01-17 22:50:00,51.8,2.4,30.47,West,259,4.0,6.0,13,0.00,,,0.00,Wunderground v.1.15,2014-01-18 06:50:00,
2014-01-17 23:00:00,51.5,2.2,30.47,West,264,5.0,7.0,13,0.00,,,0.00,Wunderground v.1.15,2014-01-18 07:00:00,
2014-01-17 23:05:00,51.6,2.3,30.47,West,266,4.0,7.0,13,0.00,,,0.00,Wunderground v.1.15,2014-01-18 07:05:00,
2014-01-17 23:10:00,51.9,2.5,30.47,West,265,4.0,7.0,13,0.00,,,0.00,Wunderground v.1.15,2014-01-18 07:10:00,
2014-01-17 23:15:00,51.9,2.5,30.47,West,263,4.0,7.0,13,0.00,,,0.00,Wunderground v.1.15,2014-01-18 07:15:00,
2014-01-17 23:25:00,51.7,2.3,30.47,West,262,4.0,7.0,13,0.00,,,0.00,Wunderground v.1.15,2014-01-18 07:25:00,
2014-01-17 23:30:00,51.6,2.3,30.47,West,264,3.0,3.0,13,0.00,,,0.00,Wunderground v.1.15,2014-01-18 07:30:00,
2014-01-17 23:35:00,51.6,2.3,30.47,West,263,4.0,4.0,13,0.00,,,0.00,Wunderground v.1.15,2014-01-18 07:35:00,
2014-01-17 23:45:00,51.6,2.3,30.47,West,262,4.0,7.0,13,0.00,,,0.00,Wunderground v.1.15,2014-01-18 07:45:00,
2014-01-17 23:50:00,51.4,2.1,30.46,West,262,4.0,7.0,13,0.00,,,0.00,Wunderground v.1.15,2014-01-18 07:50:00,